Location: Asarope
(8.2500°N, 4.4833°E)
Time: 00:26:34
(UTC+00:00)

ALOS - Pass Details

Date: 07 June 2020
Orbit: 683 x 686 km, 97.8° (Epoch: 13 July)

Event Time Altitude Azimuth Distance (km) Brightness Sun altitude
Rises 04:22:39 0° 9° (N) 3,032 6.1 -14.5°
Reaches altitude 10° 04:24:53 10° 7° (N) 2,118 5.3 -14.0°
Maximum altitude 04:29:31 77° 282° (WNW) 702 2.2 -13.0°
Drops below altitude 10° 04:34:09 10° 196° (SSW) 2,121 4.4 -11.9°
Enters shadow 04:35:36 - 195° (SSW) 2,717 5.0 -11.6°
